EA2DK Weather Reports


time (UTC)temp
C
wind
direction
speed
KPH
gust
KPH
rain 1hr
cm
rain 24hr
cm
rain mn
cm
humidity
%
barometer
mb
20260510130004 20 329 8.0 14.5 0.00 0.00 0.00 49 1011.4
20260510124504 20 351 4.8 16.1 0.00 0.00 0.00 48 1011.6
20260510123004 20 36 9.7 16.1 0.00 0.00 0.00 46 1011.6
20260510121504 20 2 8.0 19.3 0.00 0.00 0.00 43 1011.7
20260510120005 21 357 8.0 20.9 0.00 0.00 0.00 44 1011.9
20260510114504 20 311 14.5 25.7 0.00 0.00 0.00 38 1012.0
20260510113005 21 340 9.7 20.9 0.00 0.00 0.00 36 1012.1
20260510110004 22 117 6.4 20.9 0.00 0.00 0.00 32 1012.4
20260510103005 21 162 12.9 29.0 0.00 0.00 0.00 33 1012.7
20260510101504 21 205 9.7 20.9 0.00 0.00 0.00 34 1012.8
20260510100004 21 230 3.2 25.7 0.00 0.00 0.00 35 1012.6
20260510094504 21 139 12.9 25.7 0.00 0.00 0.00 34 1012.7
20260510093005 22 190 6.4 19.3 0.00 0.00 0.00 34 1012.9
20260510091504 21 197 8.0 22.5 0.00 0.00 0.00 35 1012.9
20260510090005 21 179 9.7 22.5 0.00 0.00 0.00 36 1012.9
20260510083004 20 172 14.5 27.4 0.00 0.00 0.00 37 1012.9
20260510080004 20 195 9.7 19.3 0.00 0.00 0.00 39 1012.6
20260510074504 19 179 14.5 32.2 0.00 0.00 0.00 39 1012.5
20260510073005 19 173 14.5 35.4 0.00 0.00 0.00 41 1012.4
20260510071504 18 190 14.5 32.2 0.00 0.00 0.00 42 1012.1
20260510070004 18 177 19.3 32.2 0.00 0.00 0.00 42 1012.0
20260510064504 18 180 11.3 20.9 0.00 0.00 0.00 44 1011.9
20260510063005 18 186 14.5 25.7 0.00 0.00 0.00 44 1011.8
20260510060004 18 186 16.1 32.2 0.00 0.00 0.00 44 1011.3
20260510054504 18 186 14.5 32.2 0.00 0.00 0.00 44 1011.2
20260510053004 17 170 12.9 22.5 0.00 0.00 0.00 45 1011.2
20260510051504 17 179 14.5 32.2 0.00 0.00 0.00 46 1011.1
20260510050005 17 177 14.5 20.9 0.00 0.00 0.00 48 1011.1
20260510044504 17 166 9.7 20.9 0.00 0.00 0.00 48 1011.1
20260510043004 17 166 12.9 22.5 0.00 0.00 0.00 48 1011.2
20260510040004 17 176 14.5 22.5 0.00 0.00 0.00 47 1011.3
20260510034504 18 180 14.5 20.9 0.00 0.00 0.00 46 1011.3
20260510033005 18 162 9.7 22.5 0.00 0.00 0.00 46 1011.3
20260510031503 18 178 11.3 22.5 0.00 0.00 0.00 46 1011.2
20260510030004 18 173 12.9 19.3 0.00 0.00 0.00 46 1011.2
20260510024504 18 173 9.7 20.9 0.00 0.00 0.00 46 1011.2
20260510023004 18 162 11.3 19.3 0.00 0.00 0.00 47 1011.2
20260510021504 18 216 8.0 22.5 0.00 0.00 0.00 47 1011.2
20260510020005 18 170 9.7 19.3 0.00 0.00 0.00 47 1011.3
20260510014504 18 170 11.3 20.9 0.00 0.00 0.00 47 1011.3
20260510010005 18 166 16.1 33.8 0.00 0.00 0.00 45 1011.4
20260510004504 18 158 14.5 33.8 0.00 0.00 0.00 45 1011.3
20260510003004 19 179 19.3 35.4 0.00 0.00 0.00 45 1011.2
20260510001505 19 166 19.3 32.2 0.00 0.00 0.00 45 1011.3
20260510000004 19 170 11.3 27.4 0.00 0.00 0.00 43 1011.3
20260509234504 19 180 9.7 29.0 0.00 0.00 0.00 43 1011.4
20260509233005 20 151 9.7 27.4 0.00 0.00 0.00 43 1011.3
20260509231504 20 166 14.5 27.4 0.00 0.00 0.00 44 1011.4
20260509230004 19 158 4.8 25.7 0.00 0.00 0.00 44 1011.6
20260509224504 19 156 4.8 19.3 0.00 0.00 0.00 44 1011.7
20260509223004 19 147 6.4 19.3 0.00 0.00 0.00 45 1011.9
20260509221505 18 157 3.2 9.7 0.00 0.00 0.00 48 1011.9
20260509220004 18 132 3.2 9.7 0.00 0.00 0.00 48 1012.0
20260509214504 18 175 3.2 4.8 0.00 0.00 0.00 46 1011.9
20260509213005 19 175 1.6 4.8 0.00 0.00 0.00 44 1011.9
20260509211504 20 175 1.6 19.3 0.00 0.00 0.00 43 1011.7
20260509210004 20 191 9.7 19.3 0.00 0.00 0.00 43 1011.8
20260509204504 20 163 1.6 9.7 0.00 0.00 0.00 45 1011.8
20260509201504 21 144 1.6 9.7 0.00 0.00 0.00 42 1011.5
20260509200004 21 140 4.8 19.3 0.00 0.00 0.00 41 1011.3
20260509194504 21 53 3.2 14.5 0.00 0.00 0.00 40 1011.3
20260509191504 21 125 4.8 19.3 0.00 0.00 0.00 38 1011.4
20260509190004 21 113 6.4 16.1 0.00 0.00 0.00 37 1011.1
20260509184504 21 158 4.8 14.5 0.00 0.00 0.00 43 1011.0
20260509183004 21 344 1.6 4.8 0.00 0.00 0.00 48 1011.2
20260509181505 21 28 4.8 8.0 0.00 0.00 0.00 46 1011.1
20260509180004 21 17 3.2 8.0 0.00 0.00 0.00 46 1010.9
20260509174504 21 344 1.6 14.5 0.00 0.00 0.00 45 1010.7
20260509173004 22 345 8.0 12.9 0.00 0.00 0.00 41 1010.5
20260509170004 22 115 3.2 12.9 0.00 0.00 0.00 37 1010.2
20260509164504 22 161 4.8 16.1 0.00 0.00 0.00 36 1010.2
20260509163004 22 171 4.8 19.3 0.00 0.00 0.00 35 1010.2
20260509161504 22 177 9.7 19.3 0.00 0.00 0.00 35 1010.3
20260509154504 22 146 6.4 19.3 0.00 0.00 0.00 36 1010.3
20260509153004 23 132 8.0 19.3 0.00 0.00 0.00 35 1010.4
20260509151504 23 199 9.7 27.4 0.00 0.00 0.00 35 1010.5
20260509143005 22 124 8.0 22.5 0.00 0.00 0.00 36 1010.6
20260509141503 22 142 11.3 27.4 0.00 0.00 0.00 37 1010.9
20260509140005 22 191 11.3 29.0 0.00 0.00 0.00 36 1011.3
20260509134504 22 148 12.9 29.0 0.00 0.00 0.00 35 1011.3
20260509133005 22 164 11.3 27.4 0.00 0.00 0.00 37 1011.4
20260509131504 22 168 6.4 22.5 0.00 0.00 0.00 38 1011.5